Time,TemperatureF,DewpointF,PressureIn,WindDirection,WindDirectionDegrees,WindSpeedMPH,WindSpeedGustMPH,Humidity,HourlyPrecipIn,Conditions,Clouds,dailyrainin,SolarRadiationWatts/m^2,SoftwareType,DateUTC
2013-10-23 00:00:00,61.7,60.5,29.84,West,262,0.0,0.0,96,0.00,,---,0.00,0.00,VWS V14.01,2013-10-23 04:00:00,
2013-10-23 00:01:00,61.7,60.5,29.84,West,262,0.0,0.0,96,0.00,,---,0.00,0.00,VWS V14.01,2013-10-23 04:01:00,
2013-10-23 00:02:00,61.7,60.5,29.84,West,262,0.0,0.0,96,0.00,,---,0.00,0.00,VWS V14.01,2013-10-23 04:02:00,
2013-10-23 00:04:00,61.6,60.5,29.84,West,262,0.0,0.0,96,0.00,,---,0.00,0.00,VWS V14.01,2013-10-23 04:04:00,
2013-10-23 00:05:00,61.6,60.5,29.84,West,262,0.0,0.0,96,0.00,,---,0.00,0.00,VWS V14.01,2013-10-23 04:05:00,
2013-10-23 00:10:00,61.4,60.0,29.84,North,0,0.0,0.0,95,0.00,,---,0.00,0.00,VWS V14.01,2013-10-23 04:10:00,
2013-10-23 00:15:00,61.2,60.0,29.84,North,0,0.0,0.0,96,0.00,,---,0.00,0.00,VWS V14.01,2013-10-23 04:15:00,
2013-10-23 00:20:00,61.1,60.0,29.84,North,0,0.0,0.0,96,0.00,,---,0.00,0.00,VWS V14.01,2013-10-23 04:20:00,
2013-10-23 00:25:00,61.1,60.0,29.84,North,0,0.0,0.0,96,0.00,,---,0.00,0.00,VWS V14.01,2013-10-23 04:25:00,
2013-10-23 00:30:00,61.0,59.9,29.84,North,0,0.0,0.0,96,0.00,,---,0.00,0.00,VWS V14.01,2013-10-23 04:30:00,
2013-10-23 00:35:00,60.9,59.8,29.84,North,0,0.0,0.0,96,0.00,,---,0.00,0.00,VWS V14.01,2013-10-23 04:35:00,
2013-10-23 00:40:00,61.1,60.0,29.84,North,0,0.0,0.0,96,0.00,,---,0.00,0.00,VWS V14.01,2013-10-23 04:40:00,
2013-10-23 00:45:00,61.3,60.2,29.83,West,270,0.0,1.0,96,0.00,,---,0.00,0.00,VWS V14.01,2013-10-23 04:45:00,
2013-10-23 00:50:00,61.5,60.3,29.83,West,270,0.0,1.0,96,0.00,,---,0.00,0.00,VWS V14.01,2013-10-23 04:50:00,
2013-10-23 00:55:00,61.6,60.5,29.83,West,270,1.0,6.0,96,0.00,,---,0.00,0.00,VWS V14.01,2013-10-23 04:55:00,
2013-10-23 01:00:00,61.7,60.5,29.83,West,270,2.0,6.0,96,0.00,,---,0.00,0.00,VWS V14.01,2013-10-23 05:00:00,
2013-10-23 01:05:00,61.8,60.7,29.83,West,270,3.0,7.0,96,0.00,,---,0.00,0.00,VWS V14.01,2013-10-23 05:05:00,
2013-10-23 01:10:00,61.8,60.7,29.83,West,270,3.0,6.0,96,0.00,,---,0.00,0.00,VWS V14.01,2013-10-23 05:10:00,
2013-10-23 01:15:00,61.9,60.8,29.82,West,270,3.0,7.0,96,0.00,,---,0.00,0.00,VWS V14.01,2013-10-23 05:15:00,
2013-10-23 01:20:00,62.0,60.8,29.82,WSW,248,4.0,8.0,96,0.00,,---,0.00,0.00,VWS V14.01,2013-10-23 05:20:00,
2013-10-23 01:25:00,62.0,60.8,29.82,WSW,248,4.0,8.0,96,0.00,,---,0.00,0.00,VWS V14.01,2013-10-23 05:25:00,
2013-10-23 01:30:00,62.1,61.0,29.82,WSW,248,2.0,7.0,96,0.00,,---,0.00,0.00,VWS V14.01,2013-10-23 05:30:00,
2013-10-23 01:35:00,62.1,61.0,29.82,WSW,248,4.0,8.0,96,0.00,,---,0.00,0.00,VWS V14.01,2013-10-23 05:35:00,
2013-10-23 01:40:00,62.2,61.0,29.82,WSW,248,3.0,5.0,96,0.00,,---,0.00,0.00,VWS V14.01,2013-10-23 05:40:00,
2013-10-23 01:45:00,62.2,61.0,29.82,WSW,248,3.0,8.0,96,0.00,,---,0.00,0.00,VWS V14.01,2013-10-23 05:45:00,
2013-10-23 01:50:00,62.3,61.2,29.82,WSW,248,1.0,5.0,96,0.00,,---,0.00,0.00,VWS V14.01,2013-10-23 05:50:00,
2013-10-23 01:55:00,62.3,61.2,29.82,WSW,248,3.0,8.0,96,0.00,,---,0.00,0.00,VWS V14.01,2013-10-23 05:55:00,
2013-10-23 02:00:00,62.4,61.2,29.82,WSW,248,2.0,5.0,96,0.00,,---,0.00,0.00,VWS V14.01,2013-10-23 06:00:00,
2013-10-23 02:05:00,62.5,61.3,29.82,WSW,248,1.0,5.0,96,0.00,,---,0.00,0.00,VWS V14.01,2013-10-23 06:05:00,
2013-10-23 02:10:00,62.5,61.3,29.82,WSW,248,3.0,5.0,96,0.00,,---,0.00,0.00,VWS V14.01,2013-10-23 06:10:00,
2013-10-23 02:15:00,62.5,61.3,29.82,WSW,248,5.0,10.0,96,0.00,,---,0.00,0.00,VWS V14.01,2013-10-23 06:15:00,
2013-10-23 02:20:00,62.5,61.3,29.82,WSW,248,4.0,10.0,96,0.00,,---,0.00,0.00,VWS V14.01,2013-10-23 06:20:00,
2013-10-23 02:25:00,62.6,61.5,29.82,WSW,248,4.0,8.0,96,0.00,,---,0.00,0.00,VWS V14.01,2013-10-23 06:25:00,
2013-10-23 02:30:00,62.6,61.5,29.82,WSW,248,6.0,12.0,96,0.00,,---,0.00,0.00,VWS V14.01,2013-10-23 06:30:00,
2013-10-23 02:35:00,62.6,61.5,29.82,WSW,248,5.0,12.0,96,0.00,,---,0.00,0.00,VWS V14.01,2013-10-23 06:35:00,
2013-10-23 02:40:00,62.6,61.5,29.82,WSW,248,4.0,7.0,96,0.00,,---,0.00,0.00,VWS V14.01,2013-10-23 06:40:00,
2013-10-23 02:45:00,62.6,61.5,29.81,WSW,248,1.0,5.0,96,0.00,,---,0.00,0.00,VWS V14.01,2013-10-23 06:45:00,
2013-10-23 02:50:00,62.7,61.5,29.81,WSW,248,4.0,8.0,96,0.00,,---,0.00,0.00,VWS V14.01,2013-10-23 06:50:00,
2013-10-23 02:55:00,62.7,61.5,29.81,WSW,248,2.0,5.0,96,0.00,,---,0.00,0.00,VWS V14.01,2013-10-23 06:55:00,
2013-10-23 03:00:00,62.7,61.2,29.81,WSW,248,2.0,7.0,95,0.00,,---,0.00,0.00,VWS V14.01,2013-10-23 07:00:00,
2013-10-23 03:05:00,62.7,61.2,29.81,SW,225,4.0,11.0,95,0.00,,---,0.00,0.00,VWS V14.01,2013-10-23 07:05:00,
2013-10-23 03:10:00,62.8,61.3,29.80,SW,225,0.0,3.0,95,0.00,,---,0.00,0.00,VWS V14.01,2013-10-23 07:10:00,
2013-10-23 03:15:00,62.8,61.3,29.80,SW,225,0.0,4.0,95,0.00,,---,0.00,0.00,VWS V14.01,2013-10-23 07:15:00,
2013-10-23 03:20:00,62.8,61.3,29.80,SW,225,1.0,4.0,95,0.00,,---,0.00,0.00,VWS V14.01,2013-10-23 07:20:00,
2013-10-23 03:25:00,62.8,61.3,29.80,SW,225,1.0,4.0,95,0.00,,---,0.00,0.00,VWS V14.01,2013-10-23 07:25:00,
2013-10-23 03:30:00,62.9,61.5,29.80,SW,225,2.0,5.0,95,0.00,,---,0.00,0.00,VWS V14.01,2013-10-23 07:30:00,
2013-10-23 03:35:00,62.9,61.5,29.80,SW,225,4.0,7.0,95,0.00,,---,0.00,0.00,VWS V14.01,2013-10-23 07:35:00,
2013-10-23 03:40:00,62.9,61.5,29.80,SW,225,2.0,5.0,95,0.00,,---,0.00,0.00,VWS V14.01,2013-10-23 07:40:00,
2013-10-23 03:45:00,62.9,61.8,29.80,SW,225,1.0,6.0,96,0.00,,---,0.00,0.00,VWS V14.01,2013-10-23 07:45:00,
2013-10-23 03:50:00,63.0,61.8,29.80,SW,225,2.0,5.0,96,0.00,,---,0.00,0.00,VWS V14.01,2013-10-23 07:50:00,
2013-10-23 03:55:00,62.9,61.5,29.79,SW,225,3.0,8.0,95,0.00,,---,0.00,0.00,VWS V14.01,2013-10-23 07:55:00,
2013-10-23 04:00:00,62.7,61.2,29.79,SW,225,2.0,6.0,95,0.00,,---,0.00,0.00,VWS V14.01,2013-10-23 08:00:00,
2013-10-23 04:05:00,62.8,61.3,29.79,SW,225,4.0,7.0,95,0.00,,---,0.00,0.00,VWS V14.01,2013-10-23 08:05:00,
2013-10-23 04:10:00,62.8,61.3,29.79,SW,225,2.0,7.0,95,0.00,,---,0.00,0.00,VWS V14.01,2013-10-23 08:10:00,
2013-10-23 04:15:00,62.8,61.3,29.78,SW,225,1.0,6.0,95,0.00,,---,0.00,0.00,VWS V14.01,2013-10-23 08:15:00,
2013-10-23 04:20:00,62.7,61.2,29.78,SW,225,0.0,5.0,95,0.00,,---,0.00,0.00,VWS V14.01,2013-10-23 08:20:00,
2013-10-23 04:25:00,62.6,61.2,29.78,SW,225,3.0,6.0,95,0.00,,---,0.00,0.00,VWS V14.01,2013-10-23 08:25:00,
2013-10-23 04:30:00,62.5,61.0,29.78,SW,225,4.0,7.0,95,0.00,,---,0.00,0.00,VWS V14.01,2013-10-23 08:30:00,
2013-10-23 04:35:00,62.3,60.8,29.78,SW,225,1.0,4.0,95,0.00,,---,0.00,0.00,VWS V14.01,2013-10-23 08:35:00,
2013-10-23 04:40:00,62.2,60.8,29.79,SW,225,1.0,5.0,95,0.00,,---,0.00,0.00,VWS V14.01,2013-10-23 08:40:00,
2013-10-23 04:45:00,62.0,60.6,29.78,SW,225,3.0,5.0,95,0.00,,---,0.00,0.00,VWS V14.01,2013-10-23 08:45:00,
2013-10-23 04:50:00,61.9,60.5,29.78,SW,225,2.0,4.0,95,0.00,,---,0.00,0.00,VWS V14.01,2013-10-23 08:50:00,
2013-10-23 04:55:00,61.7,60.3,29.78,SW,225,0.0,3.0,95,0.00,,---,0.00,0.00,VWS V14.01,2013-10-23 08:55:00,
2013-10-23 05:00:00,61.5,60.1,29.78,SW,225,0.0,0.0,95,0.00,,---,0.00,0.00,VWS V14.01,2013-10-23 09:00:00,
2013-10-23 05:05:00,61.5,60.3,29.79,SW,225,0.0,0.0,96,0.00,,---,0.00,0.00,VWS V14.01,2013-10-23 09:05:00,
2013-10-23 05:10:00,61.5,60.3,29.79,SW,225,0.0,1.0,96,0.00,,---,0.00,0.00,VWS V14.01,2013-10-23 09:10:00,
2013-10-23 05:15:00,61.2,60.0,29.78,SW,225,0.0,0.0,96,0.00,,---,0.00,0.00,VWS V14.01,2013-10-23 09:15:00,
2013-10-23 05:20:00,61.2,60.0,29.78,SW,225,0.0,0.0,96,0.00,,---,0.00,0.00,VWS V14.01,2013-10-23 09:20:00,
2013-10-23 05:25:00,60.9,59.8,29.78,SW,225,0.0,0.0,96,0.00,,---,0.00,0.00,VWS V14.01,2013-10-23 09:25:00,
2013-10-23 05:30:00,60.9,59.8,29.78,SW,225,0.0,0.0,96,0.00,,---,0.00,0.00,VWS V14.01,2013-10-23 09:30:00,
2013-10-23 05:35:00,60.9,59.8,29.77,SW,225,0.0,0.0,96,0.00,,---,0.00,0.00,VWS V14.01,2013-10-23 09:35:00,
2013-10-23 05:40:00,60.5,59.4,29.77,SW,225,0.0,0.0,96,0.00,,---,0.00,0.00,VWS V14.01,2013-10-23 09:40:00,
2013-10-23 05:45:00,60.3,59.2,29.78,SW,225,0.0,0.0,96,0.00,,---,0.00,0.00,VWS V14.01,2013-10-23 09:45:00,
2013-10-23 05:50:00,60.1,59.0,29.78,SW,225,0.0,0.0,96,0.00,,---,0.00,0.00,VWS V14.01,2013-10-23 09:50:00,
2013-10-23 05:55:00,59.8,58.7,29.79,SW,225,0.0,0.0,96,0.00,,---,0.00,0.00,VWS V14.01,2013-10-23 09:55:00,
2013-10-23 06:00:00,59.8,58.7,29.78,SW,225,0.0,0.0,96,0.00,,---,0.00,0.00,VWS V14.01,2013-10-23 10:00:00,
2013-10-23 06:05:00,59.8,58.7,29.79,SW,225,0.0,0.0,96,0.00,,---,0.00,0.00,VWS V14.01,2013-10-23 10:05:00,
2013-10-23 06:10:00,59.7,58.6,29.79,SW,225,0.0,1.0,96,0.00,,---,0.00,0.00,VWS V14.01,2013-10-23 10:10:00,
2013-10-23 06:15:00,59.5,58.4,29.79,SW,225,0.0,0.0,96,0.00,,---,0.00,0.00,VWS V14.01,2013-10-23 10:15:00,
2013-10-23 06:20:00,59.6,58.5,29.79,SW,225,0.0,0.0,96,0.00,,---,0.00,0.00,VWS V14.01,2013-10-23 10:20:00,
2013-10-23 06:25:00,59.6,58.5,29.78,SW,225,0.0,0.0,96,0.00,,---,0.00,0.00,VWS V14.01,2013-10-23 10:25:00,
2013-10-23 06:30:00,59.5,58.4,29.78,SW,225,0.0,1.0,96,0.00,,---,0.00,0.00,VWS V14.01,2013-10-23 10:30:00,
2013-10-23 06:35:00,59.4,58.5,29.79,SW,225,0.0,0.0,97,0.00,,---,0.00,0.00,VWS V14.01,2013-10-23 10:35:00,
2013-10-23 06:40:00,59.3,58.5,29.79,SW,225,0.0,0.0,97,0.00,,---,0.00,0.00,VWS V14.01,2013-10-23 10:40:00,
2013-10-23 06:45:00,59.0,57.9,29.79,SW,225,0.0,0.0,96,0.00,,---,0.00,0.00,VWS V14.01,2013-10-23 10:45:00,
2013-10-23 06:50:00,58.9,57.8,29.79,SW,225,0.0,1.0,96,0.00,,---,0.00,0.00,VWS V14.01,2013-10-23 10:50:00,
2013-10-23 06:55:00,58.6,57.8,29.79,SW,225,0.0,0.0,97,0.00,,---,0.00,0.00,VWS V14.01,2013-10-23 10:55:00,
2013-10-23 07:00:00,58.4,57.3,29.80,SW,225,0.0,1.0,96,0.00,,---,0.00,0.00,VWS V14.01,2013-10-23 11:00:00,
2013-10-23 07:05:00,58.3,57.2,29.80,SW,225,0.0,0.0,96,0.00,,---,0.00,0.00,VWS V14.01,2013-10-23 11:05:00,
2013-10-23 07:10:00,58.3,57.5,29.80,SW,225,1.0,5.0,97,0.00,,---,0.00,0.00,VWS V14.01,2013-10-23 11:10:00,
2013-10-23 07:15:00,58.1,57.3,29.80,SW,225,3.0,7.0,97,0.00,,---,0.00,0.00,VWS V14.01,2013-10-23 11:15:00,
2013-10-23 07:20:00,58.0,56.9,29.80,WSW,248,4.0,9.0,96,0.00,,---,0.00,0.00,VWS V14.01,2013-10-23 11:20:00,
2013-10-23 07:25:00,57.8,56.7,29.81,WSW,248,2.0,6.0,96,0.00,,---,0.00,0.00,VWS V14.01,2013-10-23 11:25:00,
2013-10-23 07:30:00,57.6,56.5,29.81,WSW,248,1.0,5.0,96,0.00,,---,0.00,0.00,VWS V14.01,2013-10-23 11:30:00,
2013-10-23 07:35:00,57.5,56.4,29.81,WSW,248,3.0,7.0,96,0.00,,---,0.00,0.00,VWS V14.01,2013-10-23 11:35:00,
2013-10-23 07:40:00,57.3,56.2,29.81,WSW,248,4.0,9.0,96,0.00,,---,0.00,4.00,VWS V14.01,2013-10-23 11:40:00,
2013-10-23 07:45:00,57.2,56.1,29.81,West,270,5.0,9.0,96,0.00,,---,0.00,8.00,VWS V14.01,2013-10-23 11:45:00,
2013-10-23 07:50:00,57.1,56.0,29.81,West,270,5.0,9.0,96,0.00,,---,0.00,11.00,VWS V14.01,2013-10-23 11:50:00,
2013-10-23 07:55:00,56.9,55.5,29.81,West,270,5.0,8.0,95,0.00,,---,0.00,13.00,VWS V14.01,2013-10-23 11:55:00,
2013-10-23 08:00:00,56.9,55.5,29.81,West,270,5.0,9.0,95,0.00,,---,0.00,23.00,VWS V14.01,2013-10-23 12:00:00,
2013-10-23 08:05:00,57.0,55.3,29.81,West,270,5.0,9.0,94,0.00,,---,0.00,44.00,VWS V14.01,2013-10-23 12:05:00,
2013-10-23 08:10:00,57.1,55.1,29.82,West,270,4.0,8.0,93,0.00,,---,0.00,63.00,VWS V14.01,2013-10-23 12:10:00,
2013-10-23 08:15:00,57.2,55.2,29.82,WSW,248,5.0,8.0,93,0.00,,---,0.00,79.00,VWS V14.01,2013-10-23 12:15:00,
2013-10-23 08:20:00,57.3,55.0,29.82,WSW,248,5.0,10.0,92,0.00,,---,0.00,96.00,VWS V14.01,2013-10-23 12:20:00,
2013-10-23 08:25:00,57.5,54.9,29.82,WSW,248,5.0,10.0,91,0.00,,---,0.00,115.00,VWS V14.01,2013-10-23 12:25:00,
2013-10-23 08:30:00,57.6,55.0,29.82,WSW,248,6.0,10.0,91,0.00,,---,0.00,131.00,VWS V14.01,2013-10-23 12:30:00,
2013-10-23 08:35:00,57.8,55.2,29.82,West,270,6.0,9.0,91,0.00,,---,0.00,149.00,VWS V14.01,2013-10-23 12:35:00,
2013-10-23 08:40:00,57.9,55.0,29.83,West,270,7.0,11.0,90,0.00,,---,0.00,168.00,VWS V14.01,2013-10-23 12:40:00,
2013-10-23 08:45:00,58.1,54.9,29.83,West,270,7.0,12.0,89,0.00,,---,0.00,186.00,VWS V14.01,2013-10-23 12:45:00,
2013-10-23 08:50:00,58.2,55.0,29.83,West,270,7.0,14.0,89,0.00,,---,0.00,201.00,VWS V14.01,2013-10-23 12:50:00,
2013-10-23 08:55:00,58.4,54.9,29.83,West,270,7.0,14.0,88,0.00,,---,0.00,219.00,VWS V14.01,2013-10-23 12:55:00,
2013-10-23 09:00:00,58.6,54.8,29.83,West,270,6.0,12.0,87,0.00,,---,0.00,238.00,VWS V14.01,2013-10-23 13:00:00,
2013-10-23 09:05:00,58.9,54.7,29.84,West,270,6.0,10.0,86,0.00,,---,0.00,256.00,VWS V14.01,2013-10-23 13:05:00,
2013-10-23 09:10:00,59.1,54.9,29.83,West,270,8.0,13.0,86,0.00,,---,0.00,276.00,VWS V14.01,2013-10-23 13:10:00,
2013-10-23 09:15:00,59.4,54.9,29.84,West,270,7.0,12.0,85,0.00,,---,0.00,295.00,VWS V14.01,2013-10-23 13:15:00,
2013-10-23 09:20:00,59.6,54.8,29.84,West,270,8.0,14.0,84,0.00,,---,0.00,311.00,VWS V14.01,2013-10-23 13:20:00,
2013-10-23 09:25:00,59.9,54.7,29.85,West,270,8.0,13.0,83,0.00,,---,0.00,328.00,VWS V14.01,2013-10-23 13:25:00,
2013-10-23 09:30:00,60.2,55.0,29.84,West,270,8.0,16.0,83,0.00,,---,0.00,346.00,VWS V14.01,2013-10-23 13:30:00,
2013-10-23 09:35:00,60.4,54.5,29.85,West,270,9.0,13.0,81,0.00,,---,0.00,364.00,VWS V14.01,2013-10-23 13:35:00,
2013-10-23 09:40:00,60.7,54.8,29.85,West,270,9.0,13.0,81,0.00,,---,0.00,380.00,VWS V14.01,2013-10-23 13:40:00,
2013-10-23 09:45:00,61.2,54.6,29.85,West,270,7.0,13.0,79,0.00,,---,0.00,394.00,VWS V14.01,2013-10-23 13:45:00,
2013-10-23 09:50:00,61.6,54.7,29.85,West,270,7.0,12.0,78,0.00,,---,0.00,412.00,VWS V14.01,2013-10-23 13:50:00,
2013-10-23 09:55:00,62.0,54.7,29.85,West,270,7.0,11.0,77,0.00,,---,0.00,429.00,VWS V14.01,2013-10-23 13:55:00,
2013-10-23 10:00:00,62.6,54.6,29.85,WNW,292,6.0,12.0,75,0.00,,---,0.00,446.00,VWS V14.01,2013-10-23 14:00:00,
2013-10-23 10:05:00,63.2,54.4,29.85,West,270,7.0,13.0,73,0.00,,---,0.00,463.00,VWS V14.01,2013-10-23 14:05:00,
2013-10-23 10:10:00,63.4,54.2,29.85,WNW,292,8.0,14.0,72,0.00,,---,0.00,478.00,VWS V14.01,2013-10-23 14:10:00,
2013-10-23 10:15:00,63.7,52.5,29.85,West,270,7.0,14.0,67,0.00,,---,0.00,492.00,VWS V14.01,2013-10-23 14:15:00,
2013-10-23 10:20:00,64.0,53.2,29.85,WNW,292,5.0,13.0,68,0.00,,---,0.00,504.00,VWS V14.01,2013-10-23 14:20:00,
2013-10-23 10:25:00,64.3,52.3,29.85,WNW,292,7.0,15.0,65,0.00,,---,0.00,520.00,VWS V14.01,2013-10-23 14:25:00,
2013-10-23 10:30:00,64.6,52.6,29.85,West,270,8.0,20.0,65,0.00,,---,0.00,534.00,VWS V14.01,2013-10-23 14:30:00,
2013-10-23 10:35:00,64.8,52.3,29.85,West,270,8.0,20.0,64,0.00,,---,0.00,548.00,VWS V14.01,2013-10-23 14:35:00,
2013-10-23 10:40:00,65.1,52.6,29.85,West,270,9.0,16.0,64,0.00,,---,0.00,562.00,VWS V14.01,2013-10-23 14:40:00,
2013-10-23 10:45:00,65.3,52.4,29.84,West,270,10.0,17.0,63,0.00,,---,0.00,576.00,VWS V14.01,2013-10-23 14:45:00,
2013-10-23 10:50:00,65.2,52.3,29.84,West,270,11.0,18.0,63,0.00,,---,0.00,587.00,VWS V14.01,2013-10-23 14:50:00,
2013-10-23 10:55:00,65.7,51.9,29.85,West,270,10.0,17.0,61,0.00,,---,0.00,600.00,VWS V14.01,2013-10-23 14:55:00,
2013-10-23 11:00:00,65.7,52.3,29.84,West,270,10.0,19.0,62,0.00,,---,0.00,613.00,VWS V14.01,2013-10-23 15:00:00,
2013-10-23 11:05:00,66.3,52.5,29.84,West,270,8.0,17.0,61,0.00,,---,0.00,625.00,VWS V14.01,2013-10-23 15:05:00,
2013-10-23 11:10:00,66.8,52.5,29.84,West,270,8.0,15.0,60,0.00,,---,0.00,637.00,VWS V14.01,2013-10-23 15:10:00,
2013-10-23 11:15:00,67.2,51.5,29.84,WSW,248,10.0,15.0,57,0.00,,---,0.00,648.00,VWS V14.01,2013-10-23 15:15:00,
2013-10-23 11:20:00,67.5,51.8,29.84,West,270,8.0,14.0,57,0.00,,---,0.00,659.00,VWS V14.01,2013-10-23 15:20:00,
2013-10-23 11:25:00,68.0,51.7,29.84,WNW,292,7.0,18.0,56,0.00,,---,0.00,666.00,VWS V14.01,2013-10-23 15:25:00,
2013-10-23 11:30:00,68.6,51.3,29.84,West,270,8.0,16.0,54,0.00,,---,0.00,676.00,VWS V14.01,2013-10-23 15:30:00,
2013-10-23 11:35:00,68.8,51.0,29.83,West,270,9.0,17.0,53,0.00,,---,0.00,686.00,VWS V14.01,2013-10-23 15:35:00,
2013-10-23 11:40:00,68.8,50.5,29.83,West,270,12.0,18.0,52,0.00,,---,0.00,695.00,VWS V14.01,2013-10-23 15:40:00,
2013-10-23 11:45:00,69.2,49.8,29.83,WNW,292,8.0,17.0,50,0.00,,---,0.00,703.00,VWS V14.01,2013-10-23 15:45:00,
2013-10-23 11:50:00,69.8,50.9,29.83,West,270,9.0,14.0,51,0.00,,---,0.00,710.00,VWS V14.01,2013-10-23 15:50:00,
2013-10-23 11:55:00,69.9,49.9,29.84,West,270,10.0,19.0,49,0.00,,---,0.00,717.00,VWS V14.01,2013-10-23 15:55:00,
2013-10-23 12:00:00,69.9,50.4,29.84,West,270,7.0,17.0,50,0.00,,---,0.00,723.00,VWS V14.01,2013-10-23 16:00:00,
2013-10-23 12:05:00,70.4,50.9,29.84,West,270,9.0,16.0,50,0.00,,---,0.00,740.00,VWS V14.01,2013-10-23 16:05:00,
2013-10-23 12:10:00,70.6,50.5,29.83,WNW,292,8.0,18.0,49,0.00,,---,0.00,749.00,VWS V14.01,2013-10-23 16:10:00,
2013-10-23 12:15:00,70.7,50.6,29.83,WNW,292,8.0,16.0,49,0.00,,---,0.00,756.00,VWS V14.01,2013-10-23 16:15:00,
2013-10-23 12:20:00,71.1,49.9,29.83,West,270,12.0,20.0,47,0.00,,---,0.00,757.00,VWS V14.01,2013-10-23 16:20:00,
2013-10-23 12:25:00,71.0,49.2,29.82,West,270,12.0,20.0,46,0.00,,---,0.00,755.00,VWS V14.01,2013-10-23 16:25:00,
2013-10-23 12:30:00,70.6,48.8,29.82,West,270,13.0,24.0,46,0.00,,---,0.00,761.00,VWS V14.01,2013-10-23 16:30:00,
2013-10-23 12:35:00,70.8,48.4,29.82,WNW,292,11.0,20.0,45,0.00,,---,0.00,773.00,VWS V14.01,2013-10-23 16:35:00,
2013-10-23 12:42:00,70.8,48.4,29.82,WNW,292,11.0,20.0,45,0.00,,---,0.00,773.00,VWS V14.01,2013-10-23 16:42:00,
2013-10-23 12:45:00,70.4,47.5,29.83,WNW,296,11.0,16.0,44,0.00,,---,0.00,780.00,VWS V14.01,2013-10-23 16:45:00,
2013-10-23 12:47:00,70.6,48.2,29.83,NW,313,3.0,18.0,45,0.00,,---,0.00,782.00,VWS V14.01,2013-10-23 16:47:00,
2013-10-23 12:50:00,70.6,48.2,29.82,NNW,333,3.0,18.0,45,0.00,,---,0.00,784.00,VWS V14.01,2013-10-23 16:50:00,
2013-10-23 12:53:00,70.6,48.8,29.82,West,271,12.0,17.0,46,0.00,,---,0.00,782.00,VWS V14.01,2013-10-23 16:53:00,
2013-10-23 12:55:00,70.8,49.0,29.83,SW,222,17.0,19.0,46,0.00,,---,0.00,788.00,VWS V14.01,2013-10-23 16:55:00,
2013-10-23 12:58:00,71.0,48.6,29.82,WSW,237,14.0,25.0,45,0.00,,---,0.00,805.00,VWS V14.01,2013-10-23 16:58:00,
2013-10-23 13:00:00,71.2,47.6,29.82,West,267,17.0,25.0,43,0.00,,---,0.00,810.00,VWS V14.01,2013-10-23 17:00:00,
2013-10-23 13:03:00,71.2,47.6,29.82,West,264,20.0,27.0,43,0.00,,---,0.00,800.00,VWS V14.01,2013-10-23 17:03:00,
2013-10-23 13:05:00,71.0,47.4,29.82,WSW,253,19.0,27.0,43,0.00,,---,0.00,789.00,VWS V14.01,2013-10-23 17:05:00,
2013-10-23 13:08:00,70.9,47.3,29.82,West,273,19.0,25.0,43,0.00,,---,0.00,784.00,VWS V14.01,2013-10-23 17:08:00,
2013-10-23 13:10:00,70.7,46.5,29.82,WNW,292,18.0,25.0,42,0.00,,---,0.00,782.00,VWS V14.01,2013-10-23 17:10:00,
2013-10-23 13:13:00,70.9,47.3,29.83,West,264,13.0,21.0,43,0.00,,---,0.00,788.00,VWS V14.01,2013-10-23 17:13:00,
2013-10-23 13:15:00,71.0,47.4,29.82,West,277,11.0,21.0,43,0.00,,---,0.00,779.00,VWS V14.01,2013-10-23 17:15:00,
2013-10-23 13:18:00,71.0,46.1,29.83,WNW,291,16.0,23.0,41,0.00,,---,0.00,779.00,VWS V14.01,2013-10-23 17:18:00,
2013-10-23 13:20:00,71.0,46.8,29.83,West,270,13.0,23.0,42,0.00,,---,0.00,779.00,VWS V14.01,2013-10-23 17:20:00,
2013-10-23 13:23:00,71.0,46.8,29.83,West,261,16.0,25.0,42,0.00,,---,0.00,777.00,VWS V14.01,2013-10-23 17:23:00,
2013-10-23 13:25:00,71.0,47.4,29.83,West,270,15.0,25.0,43,0.00,,---,0.00,784.00,VWS V14.01,2013-10-23 17:25:00,
2013-10-23 13:28:00,71.1,47.5,29.82,WNW,286,15.0,17.0,43,0.00,,---,0.00,789.00,VWS V14.01,2013-10-23 17:28:00,
2013-10-23 13:30:00,71.1,48.1,29.82,West,269,7.0,20.0,44,0.00,,---,0.00,770.00,VWS V14.01,2013-10-23 17:30:00,
2013-10-23 13:33:00,71.3,47.7,29.82,WNW,296,12.0,16.0,43,0.00,,---,0.00,772.00,VWS V14.01,2013-10-23 17:33:00,
2013-10-23 13:35:00,71.4,47.1,29.82,West,259,9.0,20.0,42,0.00,,---,0.00,770.00,VWS V14.01,2013-10-23 17:35:00,
2013-10-23 13:38:00,71.5,47.2,29.82,West,270,16.0,21.0,42,0.00,,---,0.00,768.00,VWS V14.01,2013-10-23 17:38:00,
2013-10-23 13:40:00,71.6,46.0,29.82,WSW,249,12.0,24.0,40,0.00,,---,0.00,765.00,VWS V14.01,2013-10-23 17:40:00,
2013-10-23 13:43:00,71.6,46.0,29.82,West,275,12.0,23.0,40,0.00,,---,0.00,765.00,VWS V14.01,2013-10-23 17:43:00,
2013-10-23 13:45:00,71.5,46.6,29.82,WNW,284,4.0,23.0,41,0.00,,---,0.00,773.00,VWS V14.01,2013-10-23 17:45:00,
2013-10-23 13:48:00,71.9,47.0,29.82,West,268,11.0,20.0,41,0.00,,---,0.00,766.00,VWS V14.01,2013-10-23 17:48:00,
2013-10-23 13:50:00,71.9,47.0,29.82,WNW,293,13.0,20.0,41,0.00,,---,0.00,772.00,VWS V14.01,2013-10-23 17:50:00,
2013-10-23 13:53:00,72.1,47.1,29.82,NNW,333,8.0,19.0,41,0.00,,---,0.00,758.00,VWS V14.01,2013-10-23 17:53:00,
2013-10-23 13:55:00,72.1,47.1,29.82,West,261,15.0,19.0,41,0.00,,---,0.00,756.00,VWS V14.01,2013-10-23 17:55:00,
2013-10-23 13:58:00,72.2,46.6,29.82,West,265,12.0,19.0,40,0.00,,---,0.00,754.00,VWS V14.01,2013-10-23 17:58:00,
2013-10-23 14:00:00,72.1,47.1,29.82,West,265,19.0,22.0,41,0.00,,---,0.00,754.00,VWS V14.01,2013-10-23 18:00:00,
2013-10-23 14:03:00,72.1,44.4,29.82,WSW,254,19.0,24.0,37,0.00,,---,0.00,754.00,VWS V14.01,2013-10-23 18:03:00,
2013-10-23 14:05:00,72.2,42.3,29.82,West,272,11.0,24.0,34,0.00,,---,0.00,754.00,VWS V14.01,2013-10-23 18:05:00,
2013-10-23 14:08:00,71.9,42.8,29.82,NW,309,10.0,22.0,35,0.00,,---,0.00,747.00,VWS V14.01,2013-10-23 18:08:00,
2013-10-23 14:10:00,71.8,42.7,29.82,West,275,16.0,22.0,35,0.00,,---,0.00,744.00,VWS V14.01,2013-10-23 18:10:00,
2013-10-23 14:14:00,71.9,42.8,29.82,WNW,293,9.0,19.0,35,0.00,,---,0.00,740.00,VWS V14.01,2013-10-23 18:14:00,
2013-10-23 14:15:00,72.0,42.1,29.82,NW,305,15.0,24.0,34,0.00,,---,0.00,738.00,VWS V14.01,2013-10-23 18:15:00,
2013-10-23 14:19:00,71.8,41.2,29.82,WNW,297,7.0,21.0,33,0.00,,---,0.00,738.00,VWS V14.01,2013-10-23 18:19:00,
2013-10-23 14:20:00,71.9,41.3,29.82,NNW,333,11.0,21.0,33,0.00,,---,0.00,733.00,VWS V14.01,2013-10-23 18:20:00,
2013-10-23 14:24:00,71.9,41.3,29.82,NW,309,21.0,27.0,33,0.00,,---,0.00,729.00,VWS V14.01,2013-10-23 18:24:00,
2013-10-23 14:25:00,71.9,41.3,29.81,WNW,298,10.0,27.0,33,0.00,,---,0.00,729.00,VWS V14.01,2013-10-23 18:25:00,
2013-10-23 14:29:00,71.7,41.1,29.80,West,272,13.0,25.0,33,0.00,,---,0.00,722.00,VWS V14.01,2013-10-23 18:29:00,
2013-10-23 14:30:00,71.7,41.1,29.81,West,268,14.0,25.0,33,0.00,,---,0.00,722.00,VWS V14.01,2013-10-23 18:30:00,
2013-10-23 14:34:00,72.0,42.9,29.80,SW,233,16.0,18.0,35,0.00,,---,0.00,715.00,VWS V14.01,2013-10-23 18:34:00,
2013-10-23 14:35:00,72.1,43.0,29.80,West,269,12.0,19.0,35,0.00,,---,0.00,710.00,VWS V14.01,2013-10-23 18:35:00,
2013-10-23 14:39:00,72.5,41.8,29.82,West,274,3.0,20.0,33,0.00,,---,0.00,705.00,VWS V14.01,2013-10-23 18:39:00,
2013-10-23 14:40:00,72.6,43.4,29.82,WSW,239,6.0,20.0,35,0.00,,---,0.00,701.00,VWS V14.01,2013-10-23 18:40:00,
2013-10-23 14:44:00,72.4,40.9,29.82,West,278,24.0,26.0,32,0.00,,---,0.00,694.00,VWS V14.01,2013-10-23 18:44:00,
2013-10-23 14:45:00,72.3,40.0,29.82,WSW,257,10.0,26.0,31,0.00,,---,0.00,694.00,VWS V14.01,2013-10-23 18:45:00,
2013-10-23 14:49:00,72.0,41.3,29.81,West,277,12.0,23.0,33,0.00,,---,0.00,689.00,VWS V14.01,2013-10-23 18:49:00,
2013-10-23 14:50:00,72.0,41.3,29.81,WNW,283,17.0,23.0,33,0.00,,---,0.00,689.00,VWS V14.01,2013-10-23 18:50:00,
2013-10-23 14:54:00,71.9,41.3,29.81,WNW,292,15.0,27.0,33,0.00,,---,0.00,682.00,VWS V14.01,2013-10-23 18:54:00,
2013-10-23 14:55:00,71.9,39.7,29.81,WNW,297,10.0,27.0,31,0.00,,---,0.00,679.00,VWS V14.01,2013-10-23 18:55:00,
2013-10-23 14:59:00,72.1,40.7,29.81,West,278,11.0,23.0,32,0.00,,---,0.00,673.00,VWS V14.01,2013-10-23 18:59:00,
2013-10-23 15:00:00,72.1,40.7,29.81,WNW,284,11.0,23.0,32,0.00,,---,0.00,671.00,VWS V14.01,2013-10-23 19:00:00,
2013-10-23 15:04:00,72.3,39.2,29.82,WNW,287,13.0,23.0,30,0.00,,---,0.00,661.00,VWS V14.01,2013-10-23 19:04:00,
2013-10-23 15:05:00,72.3,39.2,29.82,NW,305,7.0,23.0,30,0.00,,---,0.00,663.00,VWS V14.01,2013-10-23 19:05:00,
2013-10-23 15:09:00,72.4,39.2,29.81,WNW,282,11.0,18.0,30,0.00,,---,0.00,657.00,VWS V14.01,2013-10-23 19:09:00,
2013-10-23 15:10:00,72.4,39.2,29.81,WNW,290,11.0,18.0,30,0.00,,---,0.00,656.00,VWS V14.01,2013-10-23 19:10:00,
2013-10-23 15:15:00,72.9,37.9,29.81,West,266,17.0,18.0,28,0.00,,---,0.00,643.00,VWS V14.01,2013-10-23 19:15:00,
2013-10-23 15:20:00,72.6,37.7,29.81,West,267,10.0,25.0,28,0.00,,---,0.00,633.00,VWS V14.01,2013-10-23 19:20:00,
2013-10-23 15:25:00,72.9,38.8,29.82,WSW,255,18.0,23.0,29,0.00,,---,0.00,624.00,VWS V14.01,2013-10-23 19:25:00,
2013-10-23 15:30:00,72.5,38.5,29.81,WSW,257,8.0,21.0,29,0.00,,---,0.00,617.00,VWS V14.01,2013-10-23 19:30:00,
2013-10-23 15:35:00,72.7,37.8,29.81,WNW,286,10.0,16.0,28,0.00,,---,0.00,598.00,VWS V14.01,2013-10-23 19:35:00,
2013-10-23 15:40:00,72.5,36.7,29.81,WSW,255,21.0,23.0,27,0.00,,---,0.00,464.00,VWS V14.01,2013-10-23 19:40:00,
2013-10-23 15:45:00,72.3,36.5,29.82,West,277,12.0,20.0,27,0.00,,---,0.00,570.00,VWS V14.01,2013-10-23 19:45:00,
2013-10-23 15:50:00,72.5,37.6,29.82,WSW,245,14.0,14.0,28,0.00,,---,0.00,557.00,VWS V14.01,2013-10-23 19:50:00,
2013-10-23 15:55:00,72.5,36.7,29.81,West,261,11.0,11.0,27,0.00,,---,0.00,538.00,VWS V14.01,2013-10-23 19:55:00,
2013-10-23 16:00:00,73.0,38.0,29.82,West,261,11.0,15.0,28,0.00,,---,0.00,527.00,VWS V14.01,2013-10-23 20:00:00,
2013-10-23 16:05:00,73.0,37.1,29.82,WNW,289,10.0,18.0,27,0.00,,---,0.00,510.00,VWS V14.01,2013-10-23 20:05:00,
2013-10-23 16:10:00,72.8,36.9,29.82,WNW,299,9.0,19.0,27,0.00,,---,0.00,499.00,VWS V14.01,2013-10-23 20:10:00,
2013-10-23 16:11:00,72.8,36.9,29.82,West,277,10.0,12.0,27,0.00,,---,0.00,497.00,VWS V14.01,2013-10-23 20:11:00,
2013-10-23 16:15:00,72.6,36.7,29.82,WSW,252,11.0,16.0,27,0.00,,---,0.00,483.00,VWS V14.01,2013-10-23 20:15:00,
2013-10-23 16:16:00,72.5,36.7,29.82,WSW,254,10.0,12.0,27,0.00,,---,0.00,480.00,VWS V14.01,2013-10-23 20:16:00,
2013-10-23 16:20:00,72.5,36.7,29.82,West,261,7.0,15.0,27,0.00,,---,0.00,468.00,VWS V14.01,2013-10-23 20:20:00,
2013-10-23 16:21:00,72.4,37.5,29.82,West,261,14.0,16.0,28,0.00,,---,0.00,464.00,VWS V14.01,2013-10-23 20:21:00,
2013-10-23 16:25:00,72.3,37.4,29.82,West,270,19.0,21.0,28,0.00,,---,0.00,454.00,VWS V14.01,2013-10-23 20:25:00,
2013-10-23 16:26:00,72.2,37.3,29.82,WSW,255,13.0,20.0,28,0.00,,---,0.00,448.00,VWS V14.01,2013-10-23 20:26:00,
2013-10-23 16:30:00,72.1,37.2,29.82,WNW,285,9.0,21.0,28,0.00,,---,0.00,438.00,VWS V14.01,2013-10-23 20:30:00,
2013-10-23 16:31:00,72.1,38.1,29.82,West,279,12.0,18.0,29,0.00,,---,0.00,432.00,VWS V14.01,2013-10-23 20:31:00,
2013-10-23 16:35:00,72.3,37.4,29.83,West,281,17.0,21.0,28,0.00,,---,0.00,422.00,VWS V14.01,2013-10-23 20:35:00,
2013-10-23 16:36:00,72.3,37.4,29.83,West,272,10.0,17.0,28,0.00,,---,0.00,417.00,VWS V14.01,2013-10-23 20:36:00,
2013-10-23 16:40:00,72.1,36.3,29.83,West,267,15.0,19.0,27,0.00,,---,0.00,403.00,VWS V14.01,2013-10-23 20:40:00,
2013-10-23 16:41:00,72.1,37.2,29.83,West,265,20.0,20.0,28,0.00,,---,0.00,396.00,VWS V14.01,2013-10-23 20:41:00,
2013-10-23 16:45:00,71.9,37.1,29.83,West,269,8.0,21.0,28,0.00,,---,0.00,385.00,VWS V14.01,2013-10-23 20:45:00,
2013-10-23 16:46:00,71.8,37.0,29.83,West,270,13.0,17.0,28,0.00,,---,0.00,381.00,VWS V14.01,2013-10-23 20:46:00,
2013-10-23 16:50:00,71.5,37.6,29.83,WNW,282,11.0,20.0,29,0.00,,---,0.00,366.00,VWS V14.01,2013-10-23 20:50:00,
2013-10-23 16:51:00,71.4,37.5,29.83,WNW,298,9.0,18.0,29,0.00,,---,0.00,360.00,VWS V14.01,2013-10-23 20:51:00,
2013-10-23 16:55:00,71.2,37.3,29.83,West,279,17.0,18.0,29,0.00,,---,0.00,350.00,VWS V14.01,2013-10-23 20:55:00,
2013-10-23 16:56:00,71.2,38.2,29.83,WNW,292,12.0,17.0,30,0.00,,---,0.00,341.00,VWS V14.01,2013-10-23 20:56:00,
2013-10-23 17:00:00,71.3,38.3,29.83,West,281,9.0,17.0,30,0.00,,---,0.00,330.00,VWS V14.01,2013-10-23 21:00:00,
2013-10-23 17:02:00,71.3,38.3,29.83,West,269,10.0,20.0,30,0.00,,---,0.00,325.00,VWS V14.01,2013-10-23 21:02:00,
2013-10-23 17:05:00,71.3,40.0,29.83,WNW,291,9.0,20.0,32,0.00,,---,0.00,316.00,VWS V14.01,2013-10-23 21:05:00,
2013-10-23 17:07:00,71.3,40.0,29.84,West,273,7.0,9.0,32,0.00,,---,0.00,311.00,VWS V14.01,2013-10-23 21:07:00,
2013-10-23 17:10:00,71.3,40.0,29.83,WSW,257,10.0,17.0,32,0.00,,---,0.00,299.00,VWS V14.01,2013-10-23 21:10:00,
2013-10-23 17:12:00,71.2,39.9,29.83,West,271,11.0,12.0,32,0.00,,---,0.00,294.00,VWS V14.01,2013-10-23 21:12:00,
2013-10-23 17:15:00,71.0,39.7,29.84,WNW,294,21.0,21.0,32,0.00,,---,0.00,281.00,VWS V14.01,2013-10-23 21:15:00,
2013-10-23 17:17:00,70.7,39.4,29.84,West,273,9.0,21.0,32,0.00,,---,0.00,274.00,VWS V14.01,2013-10-23 21:17:00,
2013-10-23 17:20:00,70.4,38.3,29.84,WNW,286,16.0,24.0,31,0.00,,---,0.00,260.00,VWS V14.01,2013-10-23 21:20:00,
2013-10-23 17:22:00,70.3,38.3,29.84,West,279,14.0,18.0,31,0.00,,---,0.00,253.00,VWS V14.01,2013-10-23 21:22:00,
2013-10-23 17:25:00,70.1,38.1,29.84,West,263,14.0,20.0,31,0.00,,---,0.00,239.00,VWS V14.01,2013-10-23 21:25:00,
2013-10-23 17:27:00,69.9,38.7,29.84,WNW,303,17.0,18.0,32,0.00,,---,0.00,230.00,VWS V14.01,2013-10-23 21:27:00,
2013-10-23 17:30:00,69.8,37.8,29.84,West,263,17.0,18.0,31,0.00,,---,0.00,130.00,VWS V14.01,2013-10-23 21:30:00,
2013-10-23 17:32:00,69.7,36.9,29.84,WNW,287,16.0,19.0,30,0.00,,---,0.00,72.00,VWS V14.01,2013-10-23 21:32:00,
2013-10-23 17:35:00,69.5,37.6,29.84,NW,312,10.0,19.0,31,0.00,,---,0.00,33.00,VWS V14.01,2013-10-23 21:35:00,
2013-10-23 17:37:00,69.4,38.3,29.84,WNW,289,10.0,13.0,32,0.00,,---,0.00,33.00,VWS V14.01,2013-10-23 21:37:00,
2013-10-23 17:40:00,69.3,39.0,29.85,West,269,8.0,18.0,33,0.00,,---,0.00,32.00,VWS V14.01,2013-10-23 21:40:00,
2013-10-23 17:42:00,69.2,38.9,29.84,West,271,8.0,15.0,33,0.00,,---,0.00,33.00,VWS V14.01,2013-10-23 21:42:00,
2013-10-23 17:45:00,69.1,39.6,29.84,West,271,7.0,15.0,34,0.00,,---,0.00,65.00,VWS V14.01,2013-10-23 21:45:00,
2013-10-23 17:47:00,69.0,39.5,29.84,West,279,8.0,14.0,34,0.00,,---,0.00,120.00,VWS V14.01,2013-10-23 21:47:00,
2013-10-23 17:50:00,68.9,40.2,29.84,West,263,9.0,14.0,35,0.00,,---,0.00,127.00,VWS V14.01,2013-10-23 21:50:00,
2013-10-23 17:52:00,68.7,40.7,29.85,WNW,294,4.0,11.0,36,0.00,,---,0.00,116.00,VWS V14.01,2013-10-23 21:52:00,
2013-10-23 17:55:00,68.5,41.2,29.85,West,271,9.0,13.0,37,0.00,,---,0.00,105.00,VWS V14.01,2013-10-23 21:55:00,
2013-10-23 17:58:00,68.4,41.1,29.85,West,279,11.0,18.0,37,0.00,,---,0.00,97.00,VWS V14.01,2013-10-23 21:58:00,
2013-10-23 18:00:00,68.2,41.0,29.85,WNW,288,16.0,18.0,37,0.00,,---,0.00,88.00,VWS V14.01,2013-10-23 22:00:00,
2013-10-23 18:03:00,68.1,40.9,29.85,WNW,282,3.0,16.0,37,0.00,,---,0.00,77.00,VWS V14.01,2013-10-23 22:03:00,
2013-10-23 18:05:00,67.9,40.7,29.85,West,264,4.0,16.0,37,0.00,,---,0.00,69.00,VWS V14.01,2013-10-23 22:05:00,
2013-10-23 18:08:00,67.7,40.5,29.86,WNW,288,9.0,17.0,37,0.00,,---,0.00,62.00,VWS V14.01,2013-10-23 22:08:00,
2013-10-23 18:10:00,67.6,40.4,29.86,WNW,293,9.0,17.0,37,0.00,,---,0.00,53.00,VWS V14.01,2013-10-23 22:10:00,
2013-10-23 18:13:00,67.5,41.0,29.86,West,269,11.0,11.0,38,0.00,,---,0.00,46.00,VWS V14.01,2013-10-23 22:13:00,
2013-10-23 18:15:00,67.3,40.8,29.86,West,269,3.0,12.0,38,0.00,,---,0.00,40.00,VWS V14.01,2013-10-23 22:15:00,
2013-10-23 18:18:00,67.0,40.6,29.86,West,277,2.0,13.0,38,0.00,,---,0.00,32.00,VWS V14.01,2013-10-23 22:18:00,
2013-10-23 18:20:00,66.9,40.5,29.86,West,274,0.0,13.0,38,0.00,,---,0.00,28.00,VWS V14.01,2013-10-23 22:20:00,
2013-10-23 18:23:00,66.6,40.9,29.86,West,269,9.0,12.0,39,0.00,,---,0.00,21.00,VWS V14.01,2013-10-23 22:23:00,
2013-10-23 18:25:00,66.5,40.8,29.87,West,280,1.0,12.0,39,0.00,,---,0.00,19.00,VWS V14.01,2013-10-23 22:25:00,
2013-10-23 18:28:00,66.1,41.1,29.87,WNW,291,4.0,9.0,40,0.00,,---,0.00,14.00,VWS V14.01,2013-10-23 22:28:00,
2013-10-23 18:30:00,65.9,40.9,29.87,West,273,6.0,14.0,40,0.00,,---,0.00,12.00,VWS V14.01,2013-10-23 22:30:00,
2013-10-23 18:33:00,65.6,41.3,29.88,West,275,0.0,9.0,41,0.00,,---,0.00,11.00,VWS V14.01,2013-10-23 22:33:00,
2013-10-23 18:35:00,65.4,41.7,29.88,West,271,0.0,9.0,42,0.00,,---,0.00,9.00,VWS V14.01,2013-10-23 22:35:00,
2013-10-23 18:38:00,65.0,41.4,29.88,WNW,282,11.0,11.0,42,0.00,,---,0.00,7.00,VWS V14.01,2013-10-23 22:38:00,
2013-10-23 18:40:00,64.9,41.9,29.88,WNW,287,3.0,11.0,43,0.00,,---,0.00,7.00,VWS V14.01,2013-10-23 22:40:00,
2013-10-23 18:43:00,64.7,41.7,29.88,WNW,283,0.0,7.0,43,0.00,,---,0.00,5.00,VWS V14.01,2013-10-23 22:43:00,
2013-10-23 18:45:00,64.6,41.6,29.89,NW,318,0.0,10.0,43,0.00,,---,0.00,0.00,VWS V14.01,2013-10-23 22:45:00,
2013-10-23 18:49:00,64.5,42.1,29.89,West,265,0.0,11.0,44,0.00,,---,0.00,0.00,VWS V14.01,2013-10-23 22:49:00,
2013-10-23 18:50:00,64.4,42.0,29.89,West,265,0.0,11.0,44,0.00,,---,0.00,0.00,VWS V14.01,2013-10-23 22:50:00,
2013-10-23 18:54:00,64.1,41.8,29.89,WNW,284,0.0,8.0,44,0.00,,---,0.00,0.00,VWS V14.01,2013-10-23 22:54:00,
2013-10-23 18:55:00,63.9,42.2,29.89,WNW,286,0.0,8.0,45,0.00,,---,0.00,0.00,VWS V14.01,2013-10-23 22:55:00,
2013-10-23 18:59:00,63.6,41.9,29.90,WNW,291,7.0,7.0,45,0.00,,---,0.00,0.00,VWS V14.01,2013-10-23 22:59:00,
2013-10-23 19:00:00,63.5,41.8,29.90,West,269,0.0,7.0,45,0.00,,---,0.00,0.00,VWS V14.01,2013-10-23 23:00:00,
2013-10-23 19:04:00,63.1,42.0,29.90,West,275,0.0,4.0,46,0.00,,---,0.00,0.00,VWS V14.01,2013-10-23 23:04:00,
2013-10-23 19:05:00,63.1,42.0,29.90,West,273,1.0,4.0,46,0.00,,---,0.00,0.00,VWS V14.01,2013-10-23 23:05:00,
2013-10-23 19:09:00,62.7,42.2,29.90,West,277,0.0,4.0,47,0.00,,---,0.00,0.00,VWS V14.01,2013-10-23 23:09:00,
2013-10-23 19:10:00,62.6,42.1,29.90,West,277,0.0,4.0,47,0.00,,---,0.00,0.00,VWS V14.01,2013-10-23 23:10:00,
2013-10-23 19:14:00,62.0,42.1,29.90,West,277,0.0,0.0,48,0.00,,---,0.00,0.00,VWS V14.01,2013-10-23 23:14:00,
2013-10-23 19:15:00,61.9,42.0,29.90,West,277,0.0,0.0,48,0.00,,---,0.00,0.00,VWS V14.01,2013-10-23 23:15:00,
2013-10-23 19:19:00,61.3,41.5,29.90,West,276,0.0,0.0,48,0.00,,---,0.00,0.00,VWS V14.01,2013-10-23 23:19:00,
2013-10-23 19:20:00,61.3,41.5,29.90,West,276,0.0,0.0,48,0.00,,---,0.00,0.00,VWS V14.01,2013-10-23 23:20:00,
2013-10-23 19:24:00,61.3,40.4,29.90,NW,307,0.0,3.0,46,0.00,,---,0.00,0.00,VWS V14.01,2013-10-23 23:24:00,
2013-10-23 19:25:00,61.4,40.5,29.90,NW,307,0.0,3.0,46,0.00,,---,0.00,0.00,VWS V14.01,2013-10-23 23:25:00,
2013-10-23 19:29:00,61.2,39.7,29.91,West,281,0.0,3.0,45,0.00,,---,0.00,0.00,VWS V14.01,2013-10-23 23:29:00,
2013-10-23 19:30:00,61.1,39.6,29.91,West,281,0.0,3.0,45,0.00,,---,0.00,0.00,VWS V14.01,2013-10-23 23:30:00,
2013-10-23 19:34:00,61.0,39.0,29.91,WNW,284,0.0,3.0,44,0.00,,---,0.00,0.00,VWS V14.01,2013-10-23 23:34:00,
2013-10-23 19:35:00,60.9,38.9,29.91,WNW,284,0.0,3.0,44,0.00,,---,0.00,0.00,VWS V14.01,2013-10-23 23:35:00,
2013-10-23 19:39:00,60.7,38.7,29.91,WNW,284,0.0,0.0,44,0.00,,---,0.00,0.00,VWS V14.01,2013-10-23 23:39:00,
2013-10-23 19:40:00,60.7,38.7,29.91,WNW,284,0.0,0.0,44,0.00,,---,0.00,0.00,VWS V14.01,2013-10-23 23:40:00,
2013-10-23 19:45:00,60.5,38.5,29.91,West,278,0.0,4.0,44,0.00,,---,0.00,0.00,VWS V14.01,2013-10-23 23:45:00,
2013-10-23 19:50:00,60.3,38.3,29.91,West,279,0.0,2.0,44,0.00,,---,0.00,0.00,VWS V14.01,2013-10-23 23:50:00,
2013-10-23 19:55:00,59.8,38.4,29.92,West,279,0.0,3.0,45,0.00,,---,0.00,0.00,VWS V14.01,2013-10-23 23:55:00,
2013-10-23 20:00:00,59.4,38.1,29.92,West,278,0.0,3.0,45,0.00,,---,0.00,0.00,VWS V14.01,2013-10-24 00:00:00,
2013-10-23 20:05:00,59.2,37.9,29.92,WNW,285,0.0,6.0,45,0.00,,---,0.00,0.00,VWS V14.01,2013-10-24 00:05:00,
2013-10-23 20:10:00,59.3,38.0,29.92,West,269,0.0,10.0,45,0.00,,---,0.00,0.00,VWS V14.01,2013-10-24 00:10:00,
2013-10-23 20:15:00,59.3,38.0,29.93,West,277,0.0,0.0,45,0.00,,---,0.00,0.00,VWS V14.01,2013-10-24 00:15:00,
2013-10-23 20:20:00,59.1,37.8,29.93,West,277,0.0,0.0,45,0.00,,---,0.00,0.00,VWS V14.01,2013-10-24 00:20:00,
2013-10-23 20:25:00,58.9,37.6,29.94,West,277,0.0,0.0,45,0.00,,---,0.00,0.00,VWS V14.01,2013-10-24 00:25:00,
2013-10-23 20:30:00,58.6,37.3,29.94,West,277,0.0,0.0,45,0.00,,---,0.00,0.00,VWS V14.01,2013-10-24 00:30:00,
2013-10-23 20:35:00,58.4,37.7,29.95,West,277,0.0,0.0,46,0.00,,---,0.00,0.00,VWS V14.01,2013-10-24 00:35:00,
2013-10-23 20:36:00,58.3,37.6,29.95,West,277,0.0,0.0,46,0.00,,---,0.00,0.00,VWS V14.01,2013-10-24 00:36:00,
2013-10-23 20:40:00,57.8,37.7,29.95,West,277,0.0,0.0,47,0.00,,---,0.00,0.00,VWS V14.01,2013-10-24 00:40:00,
2013-10-23 20:41:00,57.6,38.1,29.95,West,277,0.0,0.0,48,0.00,,---,0.00,0.00,VWS V14.01,2013-10-24 00:41:00,
2013-10-23 20:45:00,57.0,38.0,29.95,West,277,0.0,0.0,49,0.00,,---,0.00,0.00,VWS V14.01,2013-10-24 00:45:00,
2013-10-23 20:46:00,56.9,38.0,29.95,West,277,0.0,0.0,49,0.00,,---,0.00,0.00,VWS V14.01,2013-10-24 00:46:00,
2013-10-23 20:50:00,56.6,38.2,29.96,West,278,0.0,3.0,50,0.00,,---,0.00,0.00,VWS V14.01,2013-10-24 00:50:00,
2013-10-23 20:51:00,56.6,38.7,29.96,West,278,0.0,1.0,51,0.00,,---,0.00,0.00,VWS V14.01,2013-10-24 00:51:00,
2013-10-23 20:55:00,56.5,38.1,29.96,West,279,0.0,4.0,50,0.00,,---,0.00,0.00,VWS V14.01,2013-10-24 00:55:00,
2013-10-23 20:56:00,56.6,38.2,29.96,West,279,0.0,0.0,50,0.00,,---,0.00,0.00,VWS V14.01,2013-10-24 00:56:00,
2013-10-23 21:00:00,56.6,38.2,29.97,West,277,0.0,2.0,50,0.00,,---,0.00,0.00,VWS V14.01,2013-10-24 01:00:00,
2013-10-23 21:01:00,56.5,37.6,29.97,West,277,0.0,0.0,49,0.00,,---,0.00,0.00,VWS V14.01,2013-10-24 01:01:00,
2013-10-23 21:05:00,56.7,37.8,29.97,West,281,0.0,0.0,49,0.00,,---,0.00,0.00,VWS V14.01,2013-10-24 01:05:00,
2013-10-23 21:07:00,56.8,37.9,29.97,West,281,0.0,2.0,49,0.00,,---,0.00,0.00,VWS V14.01,2013-10-24 01:07:00,
2013-10-23 21:10:00,56.7,37.8,29.98,West,281,1.0,2.0,49,0.00,,---,0.00,0.00,VWS V14.01,2013-10-24 01:10:00,
2013-10-23 21:12:00,56.6,37.7,29.97,West,281,0.0,2.0,49,0.00,,---,0.00,0.00,VWS V14.01,2013-10-24 01:12:00,
2013-10-23 21:15:00,56.4,38.0,29.98,West,281,0.0,2.0,50,0.00,,---,0.00,0.00,VWS V14.01,2013-10-24 01:15:00,
2013-10-23 21:17:00,56.2,37.8,29.98,West,279,0.0,0.0,50,0.00,,---,0.00,0.00,VWS V14.01,2013-10-24 01:17:00,
2013-10-23 21:20:00,56.1,37.7,29.98,West,277,0.0,3.0,50,0.00,,---,0.00,0.00,VWS V14.01,2013-10-24 01:20:00,
2013-10-23 21:22:00,56.0,37.6,29.98,West,277,0.0,0.0,50,0.00,,---,0.00,0.00,VWS V14.01,2013-10-24 01:22:00,
2013-10-23 21:25:00,56.0,37.6,29.98,West,277,0.0,1.0,50,0.00,,---,0.00,0.00,VWS V14.01,2013-10-24 01:25:00,
2013-10-23 21:27:00,55.9,37.5,29.98,West,277,0.0,0.0,50,0.00,,---,0.00,0.00,VWS V14.01,2013-10-24 01:27:00,
2013-10-23 21:30:00,55.9,37.5,29.98,West,280,0.0,0.0,50,0.00,,---,0.00,0.00,VWS V14.01,2013-10-24 01:30:00,
2013-10-23 21:32:00,55.9,37.5,29.98,West,281,0.0,1.0,50,0.00,,---,0.00,0.00,VWS V14.01,2013-10-24 01:32:00,
2013-10-23 21:35:00,55.9,37.0,29.98,WNW,288,0.0,6.0,49,0.00,,---,0.00,0.00,VWS V14.01,2013-10-24 01:35:00,
2013-10-23 21:37:00,56.0,37.1,29.99,West,270,0.0,6.0,49,0.00,,---,0.00,0.00,VWS V14.01,2013-10-24 01:37:00,
2013-10-23 21:40:00,56.0,37.1,29.99,West,268,3.0,6.0,49,0.00,,---,0.00,0.00,VWS V14.01,2013-10-24 01:40:00,
2013-10-23 21:43:00,56.1,37.2,29.99,West,281,1.0,8.0,49,0.00,,---,0.00,0.00,VWS V14.01,2013-10-24 01:43:00,
2013-10-23 21:45:00,56.1,37.2,29.99,West,281,0.0,8.0,49,0.00,,---,0.00,0.00,VWS V14.01,2013-10-24 01:45:00,
2013-10-23 21:48:00,56.0,37.1,29.99,West,281,0.0,1.0,49,0.00,,---,0.00,0.00,VWS V14.01,2013-10-24 01:48:00,
2013-10-23 21:50:00,55.9,37.0,29.99,WNW,283,4.0,4.0,49,0.00,,---,0.00,0.00,VWS V14.01,2013-10-24 01:50:00,
2013-10-23 21:53:00,55.9,37.0,30.00,WNW,286,0.0,4.0,49,0.00,,---,0.00,0.00,VWS V14.01,2013-10-24 01:53:00,
2013-10-23 21:55:00,55.9,37.0,29.99,WNW,284,0.0,4.0,49,0.00,,---,0.00,0.00,VWS V14.01,2013-10-24 01:55:00,
2013-10-23 21:58:00,55.7,36.8,30.00,WNW,286,0.0,1.0,49,0.00,,---,0.00,0.00,VWS V14.01,2013-10-24 01:58:00,
2013-10-23 22:00:00,55.7,36.3,30.00,WNW,286,0.0,1.0,48,0.00,,---,0.00,0.00,VWS V14.01,2013-10-24 02:00:00,
2013-10-23 22:03:00,55.6,36.2,30.00,NW,305,0.0,0.0,48,0.00,,---,0.00,0.00,VWS V14.01,2013-10-24 02:03:00,
2013-10-23 22:05:00,55.7,36.3,30.00,NW,306,0.0,0.0,48,0.00,,---,0.00,0.00,VWS V14.01,2013-10-24 02:05:00,
2013-10-23 22:08:00,55.7,36.3,30.01,WNW,300,0.0,0.0,48,0.00,,---,0.00,0.00,VWS V14.01,2013-10-24 02:08:00,
2013-10-23 22:10:00,55.6,36.2,30.01,NW,314,0.0,0.0,48,0.00,,---,0.00,0.00,VWS V14.01,2013-10-24 02:10:00,
2013-10-23 22:13:00,55.4,36.1,30.01,West,277,0.0,6.0,48,0.00,,---,0.00,0.00,VWS V14.01,2013-10-24 02:13:00,
2013-10-23 22:15:00,55.3,36.0,30.01,West,277,0.0,6.0,48,0.00,,---,0.00,0.00,VWS V14.01,2013-10-24 02:15:00,
2013-10-23 22:18:00,55.1,36.3,30.02,West,278,0.0,0.0,49,0.00,,---,0.00,0.00,VWS V14.01,2013-10-24 02:18:00,
2013-10-23 22:20:00,55.1,36.3,30.01,West,278,0.0,0.0,49,0.00,,---,0.00,0.00,VWS V14.01,2013-10-24 02:20:00,
2013-10-23 22:24:00,54.8,36.0,30.02,West,278,0.0,0.0,49,0.00,,---,0.00,0.00,VWS V14.01,2013-10-24 02:24:00,
2013-10-23 22:25:00,54.8,36.0,30.02,West,279,0.0,3.0,49,0.00,,---,0.00,0.00,VWS V14.01,2013-10-24 02:25:00,
2013-10-23 22:29:00,54.7,36.4,30.02,West,280,0.0,1.0,50,0.00,,---,0.00,0.00,VWS V14.01,2013-10-24 02:29:00,
2013-10-23 22:30:00,54.6,36.3,30.02,West,280,0.0,1.0,50,0.00,,---,0.00,0.00,VWS V14.01,2013-10-24 02:30:00,
2013-10-23 22:34:00,54.2,36.5,30.02,West,280,0.0,0.0,51,0.00,,---,0.00,0.00,VWS V14.01,2013-10-24 02:34:00,
2013-10-23 22:35:00,54.1,36.4,30.02,West,280,0.0,0.0,51,0.00,,---,0.00,0.00,VWS V14.01,2013-10-24 02:35:00,
2013-10-23 22:39:00,53.7,36.5,30.02,West,280,0.0,0.0,52,0.00,,---,0.00,0.00,VWS V14.01,2013-10-24 02:39:00,
2013-10-23 22:40:00,53.6,36.4,30.02,West,281,0.0,0.0,52,0.00,,---,0.00,0.00,VWS V14.01,2013-10-24 02:40:00,
2013-10-23 22:44:00,53.1,36.4,30.03,West,279,0.0,0.0,53,0.00,,---,0.00,0.00,VWS V14.01,2013-10-24 02:44:00,
2013-10-23 22:45:00,53.1,36.4,30.03,West,279,0.0,0.0,53,0.00,,---,0.00,0.00,VWS V14.01,2013-10-24 02:45:00,
2013-10-23 22:49:00,53.1,36.4,30.03,WNW,286,0.0,1.0,53,0.00,,---,0.00,0.00,VWS V14.01,2013-10-24 02:49:00,
2013-10-23 22:50:00,53.1,36.4,30.03,WNW,286,0.0,1.0,53,0.00,,---,0.00,0.00,VWS V14.01,2013-10-24 02:50:00,
2013-10-23 22:54:00,53.1,36.4,30.04,WNW,286,0.0,1.0,53,0.00,,---,0.00,0.00,VWS V14.01,2013-10-24 02:54:00,
2013-10-23 22:55:00,53.1,36.9,30.04,WNW,286,0.0,1.0,54,0.00,,---,0.00,0.00,VWS V14.01,2013-10-24 02:55:00,
2013-10-23 22:59:00,52.8,36.6,30.04,NW,313,0.0,4.0,54,0.00,,---,0.00,0.00,VWS V14.01,2013-10-24 02:59:00,
2013-10-23 23:00:00,52.7,36.5,30.04,NW,312,0.0,4.0,54,0.00,,---,0.00,0.00,VWS V14.01,2013-10-24 03:00:00,
2013-10-23 23:05:00,52.6,36.9,30.04,NW,313,0.0,0.0,55,0.00,,---,0.00,0.00,VWS V14.01,2013-10-24 03:05:00,
2013-10-23 23:10:00,52.4,36.7,30.04,NW,308,0.0,0.0,55,0.00,,---,0.00,0.00,VWS V14.01,2013-10-24 03:10:00,
2013-10-23 23:15:00,52.2,37.0,30.03,NW,309,0.0,0.0,56,0.00,,---,0.00,0.00,VWS V14.01,2013-10-24 03:15:00,
2013-10-23 23:20:00,51.9,36.7,30.04,NW,306,0.0,0.0,56,0.00,,---,0.00,0.00,VWS V14.01,2013-10-24 03:20:00,
2013-10-23 23:25:00,51.6,36.9,30.04,NW,306,0.0,0.0,57,0.00,,---,0.00,0.00,VWS V14.01,2013-10-24 03:25:00,
2013-10-23 23:30:00,51.4,37.1,30.05,NW,306,0.0,0.0,58,0.00,,---,0.00,0.00,VWS V14.01,2013-10-24 03:30:00,
2013-10-23 23:35:00,51.0,37.2,30.05,NW,306,0.0,0.0,59,0.00,,---,0.00,0.00,VWS V14.01,2013-10-24 03:35:00,
2013-10-23 23:40:00,50.7,37.3,30.05,NW,306,0.0,0.0,60,0.00,,---,0.00,0.00,VWS V14.01,2013-10-24 03:40:00,
2013-10-23 23:45:00,50.4,37.5,30.06,NW,306,0.0,0.0,61,0.00,,---,0.00,0.00,VWS V14.01,2013-10-24 03:45:00,
2013-10-23 23:50:00,50.0,37.5,30.06,NW,306,0.0,0.0,62,0.00,,---,0.00,0.00,VWS V14.01,2013-10-24 03:50:00,
2013-10-23 23:55:00,49.8,37.3,30.06,NW,306,0.0,0.0,62,0.00,,---,0.00,0.00,VWS V14.01,2013-10-24 03:55:00,
2013-10-23 23:56:00,49.7,37.2,30.07,NW,306,0.0,0.0,62,0.00,,---,0.00,0.00,VWS V14.01,2013-10-24 03:56:00,